Mytilini, Greece

11:34 PM EET on November 17, 2018 (GMT +0200)
Odysseas Elytis

Weather History for LGMT - November, 2018

Change the Weather History Date:

Friday, November 9, 2018

  Actual Average Record
Temperature  
Mean Temperature 60 °F -  
Max Temperature 68 °F 61 °F 77 °F (2000)
Min Temperature 53 °F 52 °F 46 °F (2005)
Degree Days  
Heating Degree Days 4    
Growing Degree Days 10 (Base 50)    
Moisture  
Dew Point 52 °F    
Average Humidity 70    
Maximum Humidity 82    
Minimum Humidity 48    
Precipitation  
Precipitation 0.00 in 0.14 in - ()
Sea Level Pressure  
Sea Level Pressure 30.08 in    
Wind  
Wind Speed 2 mph ()    
Max Wind Speed 6 mph    
Max Gust Speed -    
Visibility 6.4 miles    
Events      
Averages and records for this station are not official NWS values.
T = Trace of Precipitation, MM = Missing Value Source: Averaged Metar Reports

Daily Weather History Graph

Daily Weather History Graph

Search for Another Location

Airport or City:

Astronomy

Nov. 09, 2018 Rise Set
Actual Time 6:49 AM EET 5:04 PM EET
Civil Twilight 6:21 AM EET 5:32 PM EET
Nautical Twilight 5:49 AM EET 6:04 PM EET
Astronomical Twilight 5:18 AM EET 6:36 PM EET
Moon 8:19 AM EET (11/9) 6:37 PM EET (11/9)
Length of Visible Light 11h 11m
Length of Day
10h 15m
Waxing Crescent, 3% of the Moon is Illuminated
Nov 9
Waxing Crescent
Nov 15
First Quarter
Nov 23
Full
Nov 30
Last Quarter
Dec 7
New

Hourly Weather History & Observations

Time (EET) Temp. Dew Point Humidity Pressure Visibility Wind Dir Wind Speed Gust Speed Precip Events Conditions
6:20 AM 53.6 °F 48.2 °F 82% 30.06 in - Variable 2.3 mph - N/A   Clear
6:50 AM 53.6 °F 48.2 °F 82% 30.06 in - Variable 2.3 mph - N/A   Clear
7:20 AM 53.6 °F 48.2 °F 82% 30.06 in - Variable 2.3 mph - N/A   Clear
7:50 AM 53.6 °F 48.2 °F 82% 30.09 in - SW 4.6 mph - N/A   Clear
8:00 AM 54 °F 48 °F 73% 30.09 in 6 mi SW 4.6 mph - -   Partly Cloudy
8:20 AM 55.4 °F 50.0 °F 82% 30.09 in - Variable 2.3 mph - N/A   Clear
8:50 AM 57.2 °F 51.8 °F 82% 30.09 in - Calm Calm - N/A   Clear
9:20 AM 59.0 °F 53.6 °F 82% 30.09 in - Calm Calm - N/A   Clear
9:50 AM 60.8 °F 53.6 °F 77% 30.09 in - Variable 2.3 mph - N/A   Clear
10:20 AM 62.6 °F 55.4 °F 77% 30.09 in - NNW 4.6 mph - N/A   Clear
11:00 AM 64 °F 56 °F 67% 30.11 in 6 mi NNW 5.8 mph - -  
11:20 AM 64.4 °F 55.4 °F 73% 30.09 in - NNW 4.6 mph - N/A   Clear
11:50 AM 64.4 °F 55.4 °F 73% 30.09 in - North 4.6 mph - N/A   Clear
12:20 PM 66.2 °F 53.6 °F 64% 30.09 in - North 4.6 mph - N/A   Clear
12:50 PM 68.0 °F 55.4 °F 64% 30.09 in - NNW 4.6 mph - N/A   Clear
1:20 PM 68.0 °F 53.6 °F 60% 30.09 in - Variable 2.3 mph - N/A   Clear
1:50 PM 68.0 °F 53.6 °F 60% 30.06 in - Calm Calm - N/A   Clear
2:00 PM 68 °F 53 °F 48% 30.09 in 6 mi Calm Calm - -  
2:20 PM 68.0 °F 53.6 °F 60% 30.06 in - Calm Calm - N/A   Clear
2:50 PM 68.0 °F 51.8 °F 56% 30.06 in - Calm Calm - N/A   Clear
3:20 PM 68.0 °F 51.8 °F 56% 30.06 in - Calm Calm - N/A   Clear
3:50 PM 68.0 °F 50.0 °F 52% 30.06 in - Calm Calm - N/A   Clear
4:20 PM 66.2 °F 50.0 °F 56% 30.06 in - Calm Calm - N/A   Clear
4:50 PM 64.4 °F 51.8 °F 64% 30.06 in - Calm Calm - N/A   Clear
5:00 PM 65 °F 52 °F 53% 30.08 in 7 mi Calm Calm - -  
5:20 PM 64.4 °F 51.8 °F 64% 30.06 in - Calm Calm - N/A   Clear
5:50 PM 60.8 °F 51.8 °F 72% 30.06 in - Calm Calm - N/A   Clear
6:50 PM 60.8 °F 51.8 °F 72% 30.06 in - Calm Calm - N/A   Clear
7:20 PM 60.8 °F 51.8 °F 72% 30.06 in - Calm Calm - N/A   Clear
7:50 PM 60.8 °F 50.0 °F 68% 30.06 in - Calm Calm - N/A   Clear
8:00 PM 60 °F 51 °F 63% 30.09 in 7 mi Calm Calm - -  
8:20 PM 60.8 °F 50.0 °F 68% 30.09 in - Calm Calm - N/A   Clear
8:50 PM 59.0 °F 51.8 °F 77% 30.09 in - Calm Calm - N/A   Clear
9:20 PM 59.0 °F 51.8 °F 77% 30.09 in - Calm Calm - N/A   Clear
9:50 PM 57.2 °F 50.0 °F 77% 30.09 in - Calm Calm - N/A   Clear
10:20 PM 57.2 °F 50.0 °F 77% 30.09 in - Calm Calm - N/A   Clear
10:50 PM 55.4 °F 50.0 °F 82% 30.09 in - Calm Calm - N/A   Clear
11:20 PM 55.4 °F 50.0 °F 82% 30.09 in - Calm Calm - N/A   Clear